Location: Clermont
(50.2608°N, 4.3172°E)
Time: 08:11:28
(UTC+00:00)

Cosmos 1459 Rocket - Pass Details

Date: 13 August 2020
Orbit: 936 x 1000 km, 83.0° (Epoch: 26 September)

Event Time Altitude Azimuth Distance (km) Brightness Sun altitude
Exits shadow 21:08:06 24° 157° (SSE) 1,945 5.0 -16.6°
Maximum altitude 21:11:51 53° 91° (E) 1,213 4.2 -17.0°
Drops below altitude 10° 21:18:01 10° 17° (NNE) 2,782 6.8 -17.6°
Sets 21:20:37 0° 13° (NNE) 3,738 7.6 -17.8°
